Location: Campolattaro
(41.2833°N, 14.7333°E)
Time: 23:36:12
(UTC+00:00)

Cosmos 1959 Rocket - Pass Details

Date: 19 May 2025
Orbit: 947 x 995 km, 83.0° (Epoch: 22 June)

Event Time Altitude Azimuth Distance (km) Brightness Sun altitude
Rises 20:52:45 0° 351° (N) 3,652 8.7 -22.3°
Reaches altitude 10° 20:55:14 10° 350° (N) 2,708 7.8 -22.5°
Maximum altitude 21:01:26 78° 266° (W) 996 4.5 -23.1°
Enters shadow 21:03:44 42° 187° (S) 1,368 4.9 -23.3°
